G4WLC-1 Weather Reports


Display with metric or nautical units.
time (UTC)temp
F
wind
direction
speed
MPH
gust
MPH
rain 1hr
in
rain 24hr
in
rain mn
in
humidity
%
barometer
mb
20260508004757 46 142 0.0 0.0 0.00 0.00 0.00 85 1015.6
20260508004257 46 142 0.0 1.0 0.00 0.00 0.00 86 1015.6
20260508003757 46 142 0.0 0.0 0.00 0.00 0.00 86 1015.6
20260508003257 46 142 0.0 0.0 0.00 0.00 0.00 86 1015.7
20260508002757 46 142 0.0 0.0 0.00 0.00 0.00 86 1015.6
20260508002257 46 142 0.0 0.0 0.00 0.00 0.00 86 1015.6
20260508001757 46 142 0.0 0.0 0.00 0.00 0.00 86 1015.6
20260508001257 46 142 0.0 0.0 0.00 0.00 0.00 86 1015.6
20260508000757 46 142 0.0 0.0 0.00 0.00 0.00 86 1015.6
20260508000257 47 142 0.0 0.0 0.00 0.00 0.00 86 1015.6
20260507235757 47 142 0.0 0.0 0.00 0.00 0.00 85 1015.7
20260507235257 47 142 0.0 0.0 0.00 0.00 0.00 85 1015.6
20260507234757 48 142 0.0 0.0 0.00 0.00 0.00 85 1015.6
20260507234257 48 142 0.0 0.0 0.00 0.00 0.00 85 1015.5
20260507233757 48 142 0.0 0.0 0.00 0.00 0.00 86 1015.5
20260507233257 48 142 0.0 0.0 0.00 0.00 0.00 85 1015.5
20260507232757 48 142 0.0 0.0 0.00 0.00 0.00 85 1015.5
20260507232257 48 142 0.0 0.0 0.00 0.00 0.00 85 1015.6
20260507231757 48 142 0.0 0.0 0.00 0.00 0.00 85 1015.4
20260507231257 49 142 0.0 0.0 0.00 0.00 0.00 85 1015.5
20260507230757 49 142 0.0 0.0 0.00 0.00 0.00 85 1015.4
20260507230257 49 142 0.0 0.0 0.00 0.00 0.00 85 1015.4
20260507225757 49 142 0.0 0.0 0.00 0.00 0.00 85 1015.3
20260507225257 49 142 0.0 0.0 0.00 0.00 0.00 85 1015.5
20260507224757 49 142 0.0 0.0 0.00 0.00 0.00 85 1015.5
20260507224257 49 142 0.0 0.0 0.00 0.00 0.00 85 1015.5
20260507223757 49 142 0.0 0.0 0.00 0.00 0.00 85 1015.5
20260507223257 49 142 0.0 0.0 0.00 0.00 0.00 85 1015.5
20260507222757 49 142 0.0 0.0 0.00 0.00 0.00 85 1015.6
20260507222257 49 142 0.0 0.0 0.00 0.00 0.00 85 1015.5
20260507221757 49 142 0.0 0.0 0.00 0.00 0.00 86 1015.5
20260507221257 49 142 0.0 0.0 0.00 0.00 0.00 86 1015.6
20260507220757 49 142 0.0 0.0 0.00 0.00 0.00 85 1015.6
20260507220257 49 142 0.0 0.0 0.00 0.00 0.00 85 1015.6
20260507215757 49 142 0.0 0.0 0.00 0.00 0.00 85 1015.5
20260507215257 49 142 0.0 0.0 0.00 0.00 0.00 85 1015.5
20260507214757 49 142 0.0 0.0 0.00 0.00 0.00 85 1015.6
20260507214257 49 142 0.0 0.0 0.00 0.00 0.00 85 1015.6
20260507213757 49 142 0.0 0.0 0.00 0.00 0.00 85 1015.6
20260507213257 49 142 0.0 0.0 0.00 0.00 0.00 86 1015.5
20260507212757 49 142 0.0 0.0 0.00 0.00 0.00 86 1015.6
20260507212257 49 142 0.0 0.0 0.00 0.00 0.00 86 1015.6
20260507211757 49 142 0.0 0.0 0.00 0.00 0.00 86 1015.6
20260507211257 49 142 0.0 0.0 0.00 0.00 0.00 86 1015.5
20260507210757 49 142 0.0 0.0 0.00 0.00 0.00 86 1015.4
20260507210257 50 142 0.0 0.0 0.00 0.00 0.00 86 1015.4
20260507205757 50 142 0.0 0.0 0.00 0.00 0.00 85 1015.5
20260507205257 50 142 0.0 0.0 0.00 0.00 0.00 85 1015.3
20260507204757 50 142 0.0 0.0 0.00 0.00 0.00 85 1015.3
20260507204257 50 142 0.0 0.0 0.00 0.00 0.00 85 1015.3
20260507203757 50 142 0.0 0.0 0.00 0.00 0.00 85 1015.4
20260507203257 50 142 0.0 0.0 0.00 0.00 0.00 85 1015.3
20260507202757 50 142 0.0 0.0 0.00 0.00 0.00 85 1015.3
20260507202257 50 142 0.0 0.0 0.00 0.00 0.00 84 1015.2
20260507201757 50 142 0.0 0.0 0.00 0.00 0.00 85 1015.2
20260507201257 51 142 0.0 0.0 0.00 0.00 0.00 84 1015.1
20260507200757 51 142 0.0 0.0 0.00 0.00 0.00 84 1015.2
20260507200257 51 142 0.0 0.0 0.00 0.00 0.00 84 1015.2
20260507195757 51 142 0.0 0.0 0.00 0.00 0.00 84 1015.2
20260507195257 51 142 0.0 0.0 0.00 0.00 0.00 84 1015.1
20260507194757 51 142 0.0 0.0 0.00 0.00 0.00 84 1015.0
20260507194257 51 142 0.0 0.0 0.00 0.00 0.00 84 1014.9
20260507193757 51 142 0.0 0.0 0.00 0.00 0.00 83 1014.9
20260507193257 51 142 0.0 0.0 0.00 0.00 0.00 84 1014.9
20260507192757 52 142 0.0 0.0 0.00 0.00 0.00 84 1014.8
20260507192257 52 142 0.0 0.0 0.00 0.00 0.00 84 1014.9
20260507191757 52 142 0.0 0.0 0.00 0.00 0.00 83 1015.0
20260507191257 52 142 0.0 1.0 0.00 0.00 0.00 83 1015.0
20260507190757 52 142 0.0 1.0 0.00 0.00 0.00 83 1014.9
20260507190257 53 142 0.0 0.0 0.00 0.00 0.00 82 1014.9
20260507185757 53 142 0.0 0.0 0.00 0.00 0.00 81 1014.9
20260507185257 53 142 0.0 2.0 0.00 0.00 0.00 80 1014.8
20260507184757 53 150 0.0 2.0 0.00 0.00 0.00 79 1014.8
20260507184257 53 87 0.0 3.0 0.00 0.00 0.00 79 1014.9
20260507183757 53 125 0.0 2.0 0.00 0.00 0.00 79 1014.9
20260507183257 53 108 1.0 4.0 0.00 0.00 0.00 78 1014.8
20260507182757 54 129 0.0 3.0 0.00 0.00 0.00 78 1014.8
20260507182257 54 111 0.0 3.0 0.00 0.00 0.00 78 1014.8
20260507181757 54 148 0.0 0.0 0.00 0.00 0.00 78 1014.8
20260507181257 54 143 1.0 3.0 0.00 0.00 0.00 78 1014.7
20260507180757 54 142 1.0 3.0 0.00 0.00 0.00 79 1014.7
20260507180257 54 155 0.0 2.0 0.00 0.00 0.00 79 1014.7
20260507175757 54 121 1.0 3.0 0.00 0.00 0.00 79 1014.6
20260507175257 54 178 1.0 3.0 0.00 0.00 0.00 78 1014.7
20260507174757 54 136 2.0 5.0 0.00 0.00 0.00 77 1014.8
20260507174257 54 159 1.0 6.0 0.00 0.00 0.00 77 1014.8
20260507173758 54 109 1.0 5.0 0.00 0.00 0.00 75 1014.8
20260507173258 55 150 1.0 4.0 0.00 0.00 0.00 74 1014.7
20260507172757 55 169 0.0 2.0 0.00 0.00 0.00 74 1014.8
20260507172258 55 150 0.0 2.0 0.00 0.00 0.00 74 1014.8
20260507171758 55 148 0.0 1.0 0.00 0.00 0.00 74 1014.8
20260507171258 56 141 0.0 1.0 0.00 0.00 0.00 74 1014.7
20260507170758 56 146 0.0 1.0 0.00 0.00 0.00 73 1014.9
20260507170258 56 158 0.0 0.0 0.00 0.00 0.00 73 1014.7
20260507165758 56 158 0.0 1.0 0.00 0.00 0.00 73 1014.7
20260507165258 56 91 0.0 1.0 0.00 0.00 0.00 72 1014.7
20260507164758 56 120 0.0 2.0 0.00 0.00 0.00 74 1014.9
20260507164258 56 218 0.0 0.0 0.00 0.00 0.00 74 1014.8
20260507163758 56 191 0.0 0.0 0.00 0.00 0.00 77 1014.8
20260507163258 55 196 0.0 0.0 0.00 0.00 0.00 77 1014.8
20260507162758 55 194 0.0 1.0 0.00 0.00 0.00 76 1014.9
20260507162258 55 171 1.0 0.0 0.00 0.00 0.00 77 1014.9
20260507161758 54 178 1.0 5.0 0.00 0.00 0.00 78 1014.9
20260507161258 54 154 0.0 4.0 0.00 0.00 0.00 79 1015.0
20260507160758 54 96 1.0 3.0 0.00 0.00 0.00 79 1014.9
20260507160258 54 134 2.0 6.0 0.00 0.00 0.00 78 1015.0
20260507155758 54 101 2.0 6.0 0.00 0.00 0.00 78 1015.0
20260507155258 54 153 2.0 6.0 0.00 0.00 0.00 78 1014.9
20260507154758 54 146 3.0 6.0 0.00 0.00 0.00 77 1014.9
20260507154258 54 178 2.0 7.0 0.00 0.00 0.00 76 1015.0
20260507153758 54 141 1.0 6.0 0.00 0.00 0.00 76 1015.0
20260507153258 54 182 2.0 4.0 0.00 0.00 0.00 78 1015.0
20260507152758 54 268 3.0 8.0 0.00 0.00 0.00 77 1015.0
20260507152258 55 131 2.0 9.0 0.00 0.00 0.00 75 1014.8
20260507151758 55 146 1.0 4.0 0.00 0.00 0.00 75 1014.8
20260507151258 56 141 0.0 4.0 0.00 0.00 0.00 72 1014.8
20260507150758 56 152 0.0 2.0 0.00 0.00 0.00 72 1014.7
20260507150258 56 132 0.0 2.0 0.00 0.00 0.00 73 1014.8
20260507145758 56 233 0.0 1.0 0.00 0.00 0.00 75 1014.7
20260507145258 56 264 0.0 1.0 0.00 0.00 0.00 73 1014.8
20260507144758 56 238 0.0 0.0 0.00 0.00 0.00 72 1014.7
20260507144258 56 248 0.0 1.0 0.00 0.00 0.00 73 1014.7
20260507143758 56 240 0.0 1.0 0.00 0.00 0.00 72 1014.8
20260507143258 56 146 0.0 1.0 0.00 0.00 0.00 73 1014.8
20260507142758 55 114 0.0 2.0 0.00 0.00 0.00 76 1014.9
20260507142258 55 240 0.0 1.0 0.00 0.00 0.00 74 1014.9
20260507141758 55 259 0.0 1.0 0.00 0.00 0.00 76 1015.0
20260507141258 55 238 0.0 1.0 0.00 0.00 0.00 75 1015.0
20260507140758 55 250 0.0 3.0 0.00 0.00 0.00 74 1015.0
20260507140258 55 237 0.0 3.0 0.00 0.00 0.00 75 1015.1
20260507135758 55 121 0.0 4.0 0.00 0.00 0.00 74 1015.0
20260507135258 55 149 0.0 2.0 0.00 0.00 0.00 72 1015.1
20260507134758 55 152 1.0 3.0 0.00 0.00 0.00 73 1015.1
20260507134258 55 144 0.0 3.0 0.00 0.00 0.00 71 1015.2
20260507133758 56 143 0.0 2.0 0.00 0.00 0.00 72 1015.1
20260507133258 56 158 0.0 4.0 0.00 0.00 0.00 71 1015.2
20260507132758 56 252 0.0 3.0 0.00 0.00 0.00 72 1015.2
20260507132258 56 204 0.0 3.0 0.00 0.00 0.00 71 1015.3
20260507131758 56 141 0.0 3.0 0.00 0.00 0.00 75 1015.3
20260507131258 56 94 0.0 3.0 0.00 0.00 0.00 72 1015.3
20260507130758 55 158 0.0 4.0 0.00 0.00 0.00 70 1015.3
20260507130258 55 146 0.0 2.0 0.00 0.00 0.00 73 1015.3
20260507125758 55 135 0.0 3.0 0.00 0.00 0.00 73 1015.3
20260507125258 55 134 0.0 2.0 0.00 0.00 0.00 73 1015.3
20260507124758 55 146 0.0 0.0 0.00 0.00 0.00 71 1015.4
20260507124258 56 148 0.0 2.0 0.00 0.00 0.00 70 1015.3
20260507123758 56 139 0.0 1.0 0.00 0.00 0.00 70 1015.4
20260507123258 57 152 0.0 4.0 0.00 0.00 0.00 67 1015.5
20260507122758 57 94 0.0 1.0 0.00 0.00 0.00 67 1015.3
20260507122258 58 143 0.0 3.0 0.00 0.00 0.00 67 1015.5
20260507121758 58 150 0.0 2.0 0.00 0.00 0.00 69 1015.5
20260507121258 58 136 0.0 2.0 0.00 0.00 0.00 69 1015.5
20260507120758 58 105 0.0 3.0 0.00 0.00 0.00 67 1015.7
20260507120258 58 86 1.0 5.0 0.00 0.00 0.00 66 1015.6
20260507115758 58 204 2.0 5.0 0.00 0.00 0.00 66 1015.6
20260507115258 59 136 2.0 6.0 0.00 0.00 0.00 65 1015.7
20260507114758 60 132 1.0 5.0 0.00 0.00 0.00 67 1015.7
20260507114258 60 112 1.0 3.0 0.00 0.00 0.00 64 1015.7
20260507113758 60 192 1.0 5.0 0.00 0.00 0.00 66 1015.6
20260507113258 59 155 1.0 6.0 0.00 0.00 0.00 66 1015.6
20260507112758 59 225 1.0 6.0 0.00 0.00 0.00 70 1015.6
20260507112258 59 229 0.0 4.0 0.00 0.00 0.00 68 1015.6
20260507111758 58 81 1.0 3.0 0.00 0.00 0.00 70 1015.5
20260507111258 58 262 2.0 7.0 0.00 0.00 0.00 69 1015.7
20260507110758 58 146 2.0 9.0 0.00 0.00 0.00 67 1015.8
20260507110258 58 145 1.0 7.0 0.00 0.00 0.00 71 1015.7
20260507105758 58 215 1.0 6.0 0.00 0.00 0.00 69 1015.7
20260507105258 58 254 0.0 3.0 0.00 0.00 0.00 72 1015.9
20260507104758 58 187 1.0 4.0 0.00 0.00 0.00 71 1015.9
20260507104258 58 142 1.0 7.0 0.00 0.00 0.00 75 1016.0
20260507103758 58 132 1.0 6.0 0.00 0.00 0.00 73 1016.0
20260507103259 57 273 0.0 4.0 0.00 0.00 0.00 74 1015.8
20260507102758 57 335 1.0 1.0 0.00 0.00 0.00 75 1015.9
20260507102258 56 266 1.0 3.0 0.00 0.00 0.00 75 1015.9
20260507101758 56 184 1.0 4.0 0.00 0.00 0.00 76 1015.9
20260507101258 55 91 1.0 6.0 0.00 0.00 0.00 77 1015.8
20260507100758 55 97 0.0 3.0 0.00 0.00 0.00 78 1015.9
20260507100258 54 112 0.0 2.0 0.00 0.00 0.00 77 1015.7
20260507095758 54 106 1.0 2.0 0.00 0.00 0.00 79 1015.7
20260507095258 53 48 1.0 3.0 0.00 0.00 0.00 79 1015.9
20260507094758 53 243 0.0 3.0 0.00 0.00 0.00 79 1015.9
20260507094258 52 37 0.0 1.0 0.00 0.00 0.00 80 1016.0
20260507093758 52 289 0.0 2.0 0.00 0.00 0.00 80 1015.9
20260507093258 52 114 0.0 1.0 0.00 0.00 0.00 82 1015.9
20260507092758 51 46 0.0 3.0 0.00 0.00 0.00 81 1015.9
20260507092258 51 338 0.0 1.0 0.00 0.00 0.00 83 1015.9
20260507091758 50 267 0.0 2.0 0.00 0.00 0.00 83 1016.0
20260507091258 50 359 0.0 1.0 0.00 0.00 0.00 83 1016.0
20260507090758 49 124 0.0 1.0 0.00 0.00 0.00 84 1015.9
20260507090258 49 2 0.0 1.0 0.00 0.00 0.00 84 1015.9
20260507085758 49 43 0.0 1.0 0.00 0.00 0.00 84 1016.0
20260507085259 48 37 0.0 1.0 0.00 0.00 0.00 85 1016.1
20260507084759 48 309 0.0 1.0 0.00 0.00 0.00 85 1016.1
20260507084259 48 103 0.0 2.0 0.00 0.00 0.00 85 1016.0
20260507083759 47 67 0.0 1.0 0.00 0.00 0.00 85 1016.0
20260507083259 47 103 0.0 1.0 0.00 0.00 0.00 85 1016.1
20260507082759 47 97 0.0 1.0 0.00 0.00 0.00 85 1016.1
20260507082259 47 278 0.0 1.0 0.00 0.00 0.00 86 1016.1
20260507081759 47 240 0.0 0.0 0.00 0.00 0.00 87 1016.1
20260507081259 47 240 0.0 1.0 0.00 0.00 0.00 87 1015.9
20260507080759 46 276 0.0 1.0 0.00 0.00 0.00 87 1016.1
20260507080259 46 319 0.0 1.0 0.00 0.00 0.00 87 1016.0
20260507075759 46 84 0.0 1.0 0.00 0.00 0.00 87 1016.0
20260507075259 45 277 0.0 1.0 0.00 0.00 0.00 88 1016.0
20260507074759 45 333 0.0 1.0 0.00 0.00 0.00 88 1016.0
20260507074259 45 101 0.0 1.0 0.00 0.00 0.00 88 1015.9
20260507073759 45 240 0.0 0.0 0.00 0.00 0.00 88 1015.9
20260507073259 45 126 0.0 1.0 0.00 0.00 0.00 88 1015.7
20260507072759 45 58 0.0 1.0 0.00 0.00 0.00 88 1015.8
20260507072259 45 41 0.0 1.0 0.00 0.00 0.00 88 1015.9
20260507071759 45 45 0.0 0.0 0.00 0.00 0.00 89 1015.8
20260507071259 45 44 0.0 0.0 0.00 0.00 0.00 89 1015.6
20260507070759 44 46 0.0 1.0 0.00 0.00 0.00 89 1015.7
20260507070259 44 32 0.0 1.0 0.00 0.00 0.00 89 1015.6
20260507065759 44 248 0.0 0.0 0.00 0.00 0.00 89 1015.5
20260507065259 44 315 0.0 0.0 0.00 0.00 0.00 89 1015.6
20260507064759 44 309 0.0 0.0 0.00 0.00 0.00 89 1015.5
20260507064259 44 185 0.0 0.0 0.00 0.00 0.00 89 1015.6
20260507063759 44 185 0.0 2.0 0.00 0.00 0.00 89 1015.6
20260507063259 44 242 0.0 1.0 0.00 0.00 0.00 89 1015.5
20260507062759 43 32 0.0 1.0 0.00 0.00 0.00 89 1015.6
20260507062259 43 282 0.0 0.0 0.00 0.00 0.00 89 1015.6
20260507061759 43 243 0.0 0.0 0.00 0.00 0.00 89 1015.5
20260507061259 43 299 0.0 1.0 0.00 0.00 0.00 89 1015.5
20260507060759 43 270 0.0 0.0 0.00 0.00 0.00 89 1015.5
20260507060259 43 354 0.0 1.0 0.00 0.00 0.00 89 1015.5
20260507055759 43 224 0.0 0.0 0.00 0.00 0.00 89 1015.4
20260507055259 43 323 0.0 1.0 0.00 0.00 0.00 89 1015.5
20260507054759 43 9 0.0 1.0 0.00 0.00 0.00 89 1015.4
20260507054259 43 295 0.0 1.0 0.00 0.00 0.00 89 1015.5
20260507053759 43 34 0.0 1.0 0.00 0.00 0.00 89 1015.4
20260507053259 43 23 0.0 0.0 0.00 0.00 0.00 89 1015.4
20260507052759 43 70 0.0 1.0 0.00 0.00 0.00 89 1015.4
20260507052259 43 70 0.0 0.0 0.00 0.00 0.00 89 1015.3
20260507051759 43 70 0.0 0.0 0.00 0.00 0.00 89 1015.4
20260507051259 43 70 0.0 0.0 0.00 0.00 0.00 89 1015.4
20260507050759 43 70 0.0 0.0 0.00 0.00 0.00 89 1015.4
20260507050259 43 70 0.0 0.0 0.00 0.00 0.00 89 1015.4
20260507045759 43 70 0.0 0.0 0.00 0.00 0.00 89 1015.4
20260507045259 43 70 0.0 0.0 0.00 0.00 0.00 89 1015.4
20260507044759 43 82 0.0 0.0 0.00 0.00 0.00 89 1015.3
20260507044259 43 82 0.0 1.0 0.00 0.00 0.00 89 1015.3
20260507043759 43 79 0.0 0.0 0.00 0.00 0.00 89 1015.2
20260507043259 43 79 0.0 0.0 0.00 0.00 0.00 89 1015.1
20260507042759 43 79 0.0 0.0 0.00 0.00 0.00 89 1015.3
20260507042259 43 79 0.0 0.0 0.00 0.00 0.00 89 1015.2
20260507041759 43 79 0.0 0.0 0.00 0.00 0.00 89 1015.2
20260507041259 43 80 0.0 0.0 0.00 0.00 0.00 89 1015.2
20260507040759 43 80 0.0 0.0 0.00 0.00 0.00 89 1015.2
20260507040259 43 80 0.0 0.0 0.00 0.00 0.00 89 1015.2
20260507035759 43 80 0.0 0.0 0.00 0.00 0.00 89 1015.2
20260507035259 43 80 0.0 0.0 0.00 0.00 0.00 89 1015.2
20260507034759 43 80 0.0 0.0 0.00 0.00 0.00 89 1015.2
20260507034259 43 78 0.0 0.0 0.00 0.00 0.00 89 1015.2
20260507033759 43 79 0.0 0.0 0.00 0.00 0.00 89 1015.3
20260507033259 43 79 0.0 0.0 0.00 0.00 0.00 89 1015.2
20260507032759 43 79 0.0 0.0 0.00 0.00 0.00 89 1015.3
20260507032259 43 79 0.0 0.0 0.00 0.00 0.00 89 1015.2
20260507031759 43 79 0.0 1.0 0.00 0.00 0.00 89 1015.2
20260507031259 43 79 0.0 0.0 0.00 0.00 0.00 88 1015.2
20260507030759 43 79 0.0 0.0 0.00 0.00 0.00 88 1015.3
20260507030259 43 79 0.0 0.0 0.00 0.00 0.00 88 1015.1
20260507025759 43 79 0.0 0.0 0.00 0.00 0.00 88 1015.2
20260507025259 43 79 0.0 0.0 0.00 0.00 0.00 88 1015.2
20260507024759 43 80 0.0 0.0 0.00 0.00 0.00 88 1015.2
20260507024259 43 77 0.0 0.0 0.00 0.00 0.00 88 1015.2
20260507023759 43 105 0.0 0.0 0.00 0.00 0.00 88 1015.2
20260507023259 43 105 0.0 0.0 0.00 0.00 0.00 88 1015.2
20260507022759 43 106 0.0 1.0 0.00 0.00 0.00 88 1015.3
20260507022259 43 300 0.0 0.0 0.00 0.00 0.00 88 1015.2
20260507021759 43 300 0.0 0.0 0.00 0.00 0.00 88 1015.2
20260507021259 43 302 0.0 1.0 0.00 0.00 0.00 87 1015.3
20260507020759 43 34 0.0 1.0 0.00 0.00 0.00 87 1015.3
20260507020259 44 38 0.0 0.0 0.00 0.00 0.00 87 1015.2
20260507015759 44 39 0.0 1.0 0.00 0.00 0.00 87 1015.3
20260507015259 44 77 0.0 0.0 0.00 0.00 0.00 87 1015.2
20260507014759 44 77 0.0 0.0 0.00 0.00 0.00 87 1015.2
20260507014259 44 77 0.0 0.0 0.00 0.00 0.00 87 1015.2
20260507013759 44 78 0.0 0.0 0.00 0.00 0.00 87 1015.1
20260507013259 44 245 0.0 0.0 0.00 0.00 0.00 87 1015.1
20260507012759 44 245 0.0 0.0 0.00 0.00 0.00 87 1015.0
20260507012259 44 251 0.0 0.0 0.00 0.00 0.00 87 1015.0
20260507011759 44 276 0.0 0.0 0.00 0.00 0.00 87 1015.0
20260507011259 44 276 0.0 0.0 0.00 0.00 0.00 87 1015.0
20260507010759 44 276 0.0 0.0 0.00 0.00 0.00 87 1014.9
20260507010259 44 276 0.0 0.0 0.00 0.00 0.00 86 1014.9
20260507005759 44 81 0.0 0.0 0.00 0.00 0.00 86 1014.9
20260507005259 44 79 0.0 1.0 0.00 0.00 0.00 86 1014.9